Weather History for Tallahassee, FL

Change the Weather History Date:

Friday, August 30, 2013

  Actual Average Record
Temperature  
Mean Temperature 85 °F 81 °F  
Max Temperature 96 °F 91 °F 100 °F (1933)
Min Temperature 73 °F 72 °F 61 °F (1986)
Degree Days  
Heating Degree Days 0    
Month to date heating degree days 0  
Since 1 June heating degree days 0  
Since 1 July heating degree days 0  
Cooling Degree Days 20    
Month to date cooling degree days 535  
Year to date cooling degree days 2020  
Since 1 June cooling degree days 1558  
Growing Degree Days 34 (Base 50)    
Moisture  
Dew Point 71 °F    
Average Humidity 63    
Maximum Humidity 87    
Minimum Humidity 39    
Precipitation  
Precipitation 1.10 in 0.19 in 3.50 in (1911)
Month to date precipitation 8.62 7.17  
Year to date precipitation 53.29 43.73  
Sea Level Pressure  
Sea Level Pressure 29.94 in    
Wind  
Wind Speed 5 mph (NW)    
Max Wind Speed 29 mph    
Max Gust Speed 40 mph    
Visibility 9 miles    
Events Rain , Thunderstorm    
T = Trace of Precipitation, MM = Missing Value Source: NWS Daily Summary

Daily Weather History Graph

Daily Weather History Graph

Search for Another Location

Airport:

Trip Planner

Search our weather history database for the weather conditions in past years. The results will help you decide how hot, cold, wet, or windy it might be!

Date:

Astronomy

Aug. 30, 2013 Rise Set
Actual Time 7:13 AM EDT 8:02 PM EDT
Civil Twilight 6:48 AM EDT 8:26 PM EDT
Nautical Twilight 6:19 AM EDT 8:55 PM EDT
Astronomical Twilight 5:49 AM EDT 9:25 PM EDT
Moon 2:03 AM EDT (8/30) 4:05 PM EDT (8/30)
Length of Visible Light 13h 38m
Length of Day
12h 49m
Waning Crescent, 29% of the Moon is Illuminated
Aug 30
Waning Crescent
Sep 5
New
Sep 12
First Quarter
Sep 19
Full
Sep 26
Last Quarter

Hourly Weather History & Observations

Time (EDT) Temp. Heat Index Dew Point Humidity Pressure Visibility Wind Dir Wind Speed Gust Speed Precip Events Conditions
12:53 AM 77.0 °F - 70.0 °F 79% 29.96 in 10.0 mi Calm Calm - N/A   Clear
1:53 AM 77.0 °F - 69.1 °F 76% 29.97 in 10.0 mi Calm Calm - N/A   Clear
2:53 AM 77.0 °F - 70.0 °F 79% 29.96 in 10.0 mi West 4.6 mph - N/A   Partly Cloudy
3:53 AM 75.9 °F - 71.1 °F 85% 29.95 in 10.0 mi WNW 3.5 mph - N/A   Clear
4:53 AM 75.9 °F - 71.1 °F 85% 29.95 in 10.0 mi Calm Calm - N/A   Scattered Clouds
5:53 AM 75.9 °F - 71.1 °F 85% 29.94 in 10.0 mi Calm Calm - N/A   Clear
6:53 AM 75.9 °F - 71.1 °F 85% 29.95 in 10.0 mi WNW 3.5 mph - N/A   Mostly Cloudy
7:53 AM 75.9 °F - 71.1 °F 85% 29.97 in 8.0 mi Calm Calm - N/A   Partly Cloudy
8:53 AM 78.1 °F - 72.0 °F 81% 29.98 in 9.0 mi Calm Calm - N/A   Scattered Clouds
9:53 AM 81.0 °F 85.2 °F 72.0 °F 74% 29.99 in 8.0 mi West 4.6 mph - N/A   Mostly Cloudy
10:53 AM 88.0 °F 94.7 °F 72.0 °F 59% 30.00 in 10.0 mi North 8.1 mph - N/A   Scattered Clouds
11:53 AM 89.1 °F 96.0 °F 72.0 °F 57% 29.99 in 10.0 mi North 8.1 mph - N/A   Partly Cloudy
12:53 PM 91.0 °F 97.6 °F 71.1 °F 52% 29.97 in 10.0 mi NW 5.8 mph - N/A   Mostly Cloudy
1:53 PM 93.0 °F 97.9 °F 69.1 °F 45% 29.95 in 10.0 mi NNW 10.4 mph - N/A   Scattered Clouds
2:53 PM 95.0 °F 99.0 °F 66.9 °F 40% 29.92 in 10.0 mi West 12.7 mph 17.3 mph N/A   Scattered Clouds
3:53 PM 93.9 °F 100.8 °F 71.1 °F 47% 29.90 in 10.0 mi WNW 8.1 mph - N/A   Scattered Clouds
4:53 PM 95.0 °F 102.5 °F 71.1 °F 46% 29.88 in 10.0 mi WNW 9.2 mph - N/A   Mostly Cloudy
5:53 PM 95.0 °F 101.3 °F 70.0 °F 44% 29.87 in 10.0 mi NW 10.4 mph - N/A   Scattered Clouds
6:53 PM 91.9 °F 98.4 °F 71.1 °F 50% 29.88 in 10.0 mi WNW 11.5 mph - N/A Thunderstorm Thunderstorm
7:53 PM 90.0 °F 96.9 °F 72.0 °F 55% 29.88 in 10.0 mi WNW 5.8 mph - N/A Thunderstorm Thunderstorm
8:36 PM 82.4 °F 87.2 °F 71.6 °F 70% 29.89 in 10.0 mi SE 16.1 mph - N/A Thunderstorm Thunderstorm
8:53 PM 81.0 °F 85.8 °F 73.0 °F 77% 29.94 in 10.0 mi ENE 16.1 mph 23.0 mph N/A Thunderstorm Thunderstorm
8:59 PM 77.0 °F - 73.4 °F 89% 29.94 in 1.5 mi ENE 28.8 mph 40.3 mph 0.03 in Rain , Thunderstorm Heavy Thunderstorms and Rain
9:05 PM 73.4 °F - 69.8 °F 88% 29.95 in 0.8 mi ENE 23.0 mph 40.3 mph 0.32 in Rain , Thunderstorm Heavy Thunderstorms and Rain
9:17 PM 73.4 °F - 71.6 °F 94% 29.96 in 2.0 mi SE 13.8 mph - 1.00 in Rain , Thunderstorm Heavy Thunderstorms and Rain
9:41 PM 73.4 °F - 71.6 °F 94% 29.97 in 3.0 mi SSE 6.9 mph - 1.09 in Rain , Thunderstorm Thunderstorms and Rain
9:53 PM 73.9 °F - 71.8 °F 93% 29.97 in 5.0 mi Calm Calm - 1.10 in Rain , Thunderstorm Light Thunderstorms and Rain
10:19 PM 75.2 °F - 73.4 °F 94% 29.95 in 10.0 mi Calm Calm - 0.00 in   Overcast
10:53 PM 75.0 °F - 73.4 °F 95% 29.94 in 10.0 mi East 3.5 mph - 0.00 in   Scattered Clouds
11:53 PM 75.0 °F - - N/A% 29.94 in 9.0 mi Calm Calm - N/A   Clear